TIME,DELAY(SENSOR),PRES,T(CTD),SAL,OXYGEN,RAWTEMP,T(OPTODE),TCPHASE,FLUOR,BETA(BETA700),BETA(BETA412),BETA(BETA440),CDOM,C(CSC),ED(ED411.90),ED(ED443.80),ED(ED489.40),ED(ED554.70),LU(LU412.20),LU(LU443.80),LU(LU489.40),LU(LU555.00),COMP,TILTX,TILTX(TILTY),CHECK
1380207921,5805,493.4700012207031000,17.7336006164550780,36.4933013916015600,209.8623046875000000,164.0771026611328000,17.7317600250244140,32.1507987976074200,148,4130,47,52,47,8522,2146955949,2147514075,2147273371,2147454016,2147081499,2146951323,2147656612,2147126153,2245,-1,8,62232
1380208048,5806,482.5599975585937500,17.7999992370605470,36.5059013366699200,210.2754974365234400,162.0075988769531200,17.7942295074462900,32.0997505187988300,148,4130,48,52,47,8521,2146960630,2147513362,2147271954,2147454601,2147077686,2146955556,2147653275,2147128128,1256,-1,8,2566
1380208187,5806,471.8599853515625000,17.8619995117187500,36.5163993835449200,211.1051025390625000,159.7910003662109400,17.8611507415771500,32.0236587524414060,148,4130,49,52,47,8523,2146961499,2147514724,2147271835,2147451830,2147084461,2146957449,2147653979,2147130468,3391,-1,8,3643
1380208340,5807,460.5899963378906000,17.9221000671386720,36.5252990722656250,212.1578979492187500,157.9741973876953000,17.9160003662109380,31.9410495758056640,148,4130,48,52,46,8523,2146958025,2147513572,2147272841,2147451556,2147079652,2146954925,2147658816,2147126509,2806,-1,8,28093
1380208491,5806,449.8399963378906000,17.9773006439209000,36.5312995910644500,212.8805999755859400,156.0812072753906200,17.9731597900390620,31.8759403228759770,148,4130,47,53,47,8523,2146962642,2147515035,2147269668,2147452123,2147075794,2146954980,2147657947,2147126656,2305,-1,8,10097
1380208648,5806,437.2200012207031000,18.0401992797851560,36.5345001220703100,214.3152008056640600,154.0489044189453000,18.0345401763916000,31.7704200744628900,148,4130,48,52,46,8522,2146957942,2147514432,2147271332,2147447890,2147084315,2146959424,2147654811,2147129828,1144,-1,8,16573
1380208775,5807,425.7399902343750000,18.0902996063232420,36.5383987426757800,215.5740966796875000,152.3851928710937500,18.0847892761230470,31.6803894042968750,147,4130,47,53,47,8525,2146959698,2147516406,2147270217,2147447570,2147077110,2146959597,2147655515,2147127378,514,-1,8,36842
1380208904,5805,414.3999938964844000,18.1660995483398440,36.5437011718750000,217.2830047607422000,149.9120025634765600,18.1595001220703120,31.5561408996582030,147,4130,46,51,46,8524,2146961380,2147511798,2147270518,2147449910,2147074742,2146959917,2147651867,2147125001,2948,-1,8,49296
1380209031,5804,403.2600097656250000,18.2262992858886720,36.5456008911132800,219.2689971923828000,147.7510986328125000,18.2247791290283200,31.4223899841308600,146,4130,48,52,47,8526,2146960374,2147514075,2147272630,2147448521,2147077458,2146962386,2147656027,2147126564,2475,-1,8,8398
1380209160,5805,391.8500061035156000,18.2935009002685550,36.5508995056152340,223.3468017578125000,145.6365051269531200,18.2886791229248050,31.1831893920898440,146,4130,48,54,46,8527,2146960905,2147508315,2147273289,2147447396,2147081472,2146957540,2147650468,2147127241,2056,-1,8,28627
1380209275,5802,381.3699951171875000,18.2994995117187500,36.5517005920410160,225.8193969726562500,145.2375946044922000,18.3007392883300780,31.0522308349609380,148,4130,47,51,47,8525,2146958436,2147513600,2147271643,2147448118,2147072219,2146957915,2147653193,2147127003,1656,-2,8,11643
1380209402,5804,369.5499877929687500,18.3185997009277340,36.5475006103515600,229.0614929199218800,144.8041992187500000,18.3138294219970700,30.8843708038330080,147,4130,47,53,46,8528,2146959744,2147514496,2147269010,2147451867,2147081088,2146957129,2147655789,2147127515,442,-1,8,31360
1380209519,5804,358.4599914550781000,18.3456001281738280,36.5494003295898440,230.6909027099609400,143.9714965820312500,18.3390007019042970,30.7926692962646500,148,4130,48,52,47,8526,2146959204,2147516288,2147270025,2147444233,2147079826,2146961837,2147654418,2147129627,2849,-1,8,4784
1380209634,5806,347.4899902343750000,18.3738994598388670,36.5512008666992200,230.9913940429687500,143.0410003662109400,18.3671207427978500,30.7656307220459000,147,4130,48,52,47,8528,2146961965,2147513846,2147269622,2147448932,2147078016,2146960777,2147651145,2147127990,2277,-1,8,30196
1380209749,5802,336.4400024414062500,18.3871002197265620,36.5508003234863300,232.6672973632812500,142.4479980468750000,18.3850402832031250,30.6758708953857420,148,4130,49,52,46,8526,2146959140,2147513636,2147271634,2147448640,2147079661,2146961819,2147650916,2147132086,1699,-1,8,48698
1380209866,5806,325.3599853515625000,18.4029006958007800,36.5485000610351560,233.5498962402343800,142.0211029052734400,18.3979492187500000,30.6274204254150400,149,4130,48,52,47,8528,2146958546,2147511515,2147272082,2147448228,2147079314,2146957211,2147658742,2147129069,991,-1,8,43355
1380209981,5807,314.7200012207031000,18.4276008605957030,36.5511016845703100,234.0077972412109400,140.9483032226562500,18.4303798675537100,30.5909099578857420,147,4130,48,52,47,8528,2146962011,2147512493,2147271552,2147447899,2147066605,2146959890,2147653001,2147128649,3152,-2,8,60426
1380210110,5804,303.0899963378906000,18.4641990661621100,36.5539016723632800,233.9481964111328000,139.9638061523437500,18.4601402282714840,30.5807495117187500,146,4130,47,53,45,8530,2146961316,2147511113,2147271762,2147447753,2147077577,2146963309,2147655149,2147130907,1658,-1,8,44023
1380210237,5806,291.9500122070312500,18.4818000793457030,36.5512008666992200,234.4972991943359400,139.3692016601562500,18.4781208038330080,30.5464401245117200,146,4130,48,52,47,8528,2146960822,2147511643,2147271890,2147444918,2147076388,2146963227,2147657115,2147128713,567,-1,8,22778
1380210364,5800,281.0700073242187500,18.4899997711181640,36.5442008972168000,236.1423034667968800,139.0373992919922000,18.4881496429443360,30.4631996154785160,147,4130,48,52,46,8529,2146959350,2147510326,2147267081,2147446217,2147072576,2146963547,2147660589,2147132169,3375,-1,8,65346
1380210493,5807,270.3399963378906000,18.5214996337890620,36.5463981628418000,237.0874938964843800,138.0630035400390600,18.5176105499267580,30.4053001403808600,147,4130,48,52,46,8528,2146960658,2147509696,2147273069,2147445430,2147078619,2146967021,2147661586,2147128054,2358,-1,8,7524
1380210620,5807,259.7300109863281000,18.5557994842529300,36.5497016906738300,236.2476959228515600,136.9579010009765600,18.5510196685791000,30.4306602478027340,147,4130,49,51,46,8529,2146963666,2147512841,2147271661,2147447533,2147071954,2146964644,2147666313,2147129042,1807,-1,8,58325
1380210761,5804,248.1499938964843800,18.6420001983642580,36.5616989135742200,233.9438934326172000,134.0888977050781200,18.6377906799316400,30.5029201507568360,147,4130,48,54,47,8530,2146959579,2147512704,2147268580,2147448045,2147082724,2146969161,2147667684,2147128265,985,-1,8,5298
1380210900,5804,237.2100067138672000,18.7154998779296880,36.5709991455078100,230.4573974609375000,131.6331024169922000,18.7120704650878900,30.6397209167480470,147,4130,48,52,46,8528,2146960292,2147511753,2147270272,2147447076,2147079478,2146969856,2147666477,2147129371,3267,-1,8,54265
1380211060,5806,224.4700012207031200,18.8034992218017580,36.5764007568359400,228.5596923828125000,128.3787994384765600,18.8105297088623050,30.6899890899658200,147,4130,48,52,46,8527,2146964379,2147514870,2147271341,2147442075,2147079570,2146973129,2147672594,2147131702,2390,-1,8,15083
1380211185,5804,212.4100036621093800,18.8871994018554700,36.5798988342285160,226.2333984375000000,125.8706970214843800,18.8864307403564450,30.7725791931152340,145,4130,48,54,47,8526,2146959113,2147511451,2147272000,2147443712,2147077366,2146974070,2147681371,2147131081,1692,-1,8,16835
1380211300,5807,200.7299957275390600,19.0443000793457030,36.5886993408203100,223.7006988525390600,120.7568969726562500,19.0412406921386720,30.8317909240722660,146,4130,47,52,46,8526,2146960841,2147517348,2147271588,2147445083,2147082477,2146981184,2147693174,2147131236,887,0,8,48419
1380211381,5804,192.8999938964843800,19.1935997009277340,36.5900001525878900,226.7317047119140600,115.5045013427734400,19.2003192901611330,30.6099205017089840,147,4130,47,53,46,8524,2146957613,2147513901,2147272859,2147446317,2147083538,2146982052,2147699392,2147131401,1198,-1,8,44449
1380211436,5807,187.9400024414062500,19.2928009033203120,36.6006011962890600,229.6271057128906200,112.7946014404296900,19.2824192047119140,30.4310607910156250,147,4130,48,52,48,8524,2146958838,2147512064,2147270336,2147444882,2147084873,2146990793,2147706377,2147133293,850,-1,7,49517
1380211491,5808,183.0800018310547000,19.3488006591796880,36.5987014770507800,232.0312957763672000,110.3591003417968800,19.3562297821044920,30.2821197509765620,145,4130,47,52,47,8526,2146960530,2147513380,2147270546,2147441618,2147087424,2146996114,2147711140,2147131410,33,-1,8,56534
1380211546,5805,178.3099975585937500,19.4934005737304700,36.6151008605957000,233.0227966308593800,105.8453979492187500,19.4930706024169920,30.1749591827392580,146,4130,47,51,46,8526,2146960932,2147514157,2147271003,2147442916,2147086052,2146999323,2147714569,2147129993,2986,-1,8,17667
1380211601,5801,173.6699981689453000,19.5872993469238280,36.6241989135742200,233.6977996826172000,103.0916976928711000,19.5765895843505860,30.1066703796386720,146,4130,49,52,46,8526,2146959030,2147511963,2147268809,2147442102,2147086509,2146997906,2147719844,2147133696,2861,-1,8,53902
1380211688,5804,166.9100036621093800,19.7171993255615230,36.6344985961914060,235.3560028076172000,98.7444763183593800,19.7084693908691400,29.9712390899658200,146,4130,49,52,47,8527,2146960374,2147516114,2147272128,2147443309,2147088804,2147013449,2147739465,2147134162,3356,-2,8,43347
1380211743,5804,163.2500000000000000,19.7551994323730470,36.6381988525390600,235.8726959228515600,97.0612564086914000,19.7595596313476560,29.9247093200683600,146,4130,46,52,46,8528,2146958189,2147513161,2147268800,2147441234,2147088338,2147024438,2147761673,2147139090,2864,-1,8,30044
1380211810,5806,159.0099945068359400,19.9244003295898440,36.6390991210937500,236.8811035156250000,92.0685577392578100,19.9111309051513670,29.8124103546142580,145,4130,47,52,47,8524,2146957037,2147515072,2147268205,2147437997,2147099483,2147040137,2147782482,2147139108,2258,-1,9,4588
1380211877,5805,155.0000000000000000,20.0172004699707030,36.6464996337890600,237.5928039550781200,88.7731170654296900,20.0112304687500000,29.7362899780273440,146,4130,48,52,47,8523,2146958875,2147514203,2147273106,2147442752,2147101988,2147058587,2147816210,2147143734,2042,-1,8,60739
1380211944,5809,151.1600036621093800,20.1846008300781250,36.6565017700195300,238.6123046875000000,83.5094604492187500,20.1711902618408200,29.6207008361816400,146,4130,48,52,48,8523,2146961782,2147513984,2147276827,2147439414,2147104329,2147082788,2147854317,2147141897,1702,-1,8,31685
1380212030,5806,147.0099945068359400,20.2935009002685550,36.6600990295410160,240.5717926025390600,79.7097015380859400,20.2867202758789060,29.4814300537109380,146,4130,48,53,47,8522,2146960905,2147516800,2147276736,2147440640,2147109760,2147098852,2147883556,2147143780,1496,-1,8,9700
1380212121,5805,143.7500000000000000,20.3784999847412100,36.6627998352050800,242.1522979736328000,77.0573577880859400,20.3673992156982420,29.3751392364501950,146,4130,48,52,47,8520,2146958509,2147517467,2147274057,2147438509,2147116123,2147126720,2147913947,2147147446,1932,-2,9,53749
1380212236,5805,140.0000000000000000,20.5090999603271500,36.6530990600585940,244.6893005371093800,72.8127670288086000,20.4965705871582030,29.2059497833251950,147,4130,49,50,46,8518,2146960265,2147518820,2147278528,2147442221,2147126400,2147146322,2147949284,2147153142,1478,-1,8,53306
1380212354,5805,135.8399963378906200,20.6156997680664060,36.6497001647949200,246.5921936035156200,69.1814804077148400,20.6071300506591800,29.0745906829834000,146,4130,48,52,45,8513,2146961782,2147520073,2147278400,2147437769,2147142966,2147208905,2148026633,2147156964,872,-1,8,37025
1380212457,5806,131.6600036621093800,20.7033996582031250,36.6459999084472660,244.6264953613281200,66.3004837036132800,20.6948890686035160,29.1257190704345700,148,4130,47,51,47,8505,2146960640,2147522240,2147280640,2147437074,2147174601,2147294985,2148154971,2147166345,1005,-1,9,38420
1380212560,5804,127.9599990844726600,20.8607006072998050,36.6389999389648440,239.8083038330078000,61.3578300476074200,20.8455200195312500,29.2812004089355470,147,4130,49,53,47,8499,2146963748,2147523620,2147286061,2147435602,2147213293,2147411200,2148324224,2147176640,1276,-2,8,13851
1380212671,5806,123.4300003051757800,21.0771007537841800,36.6605987548828100,242.9557037353515600,54.2942008972168000,21.0609703063964840,29.0482006072998050,145,4130,48,51,47,8506,2146965184,2147526985,2147293540,2147437440,2147267309,2147543789,2148501769,2147195355,1646,-1,8,1908
1380212750,5803,119.3499984741211000,21.2397003173828120,36.6542015075683600,248.4479980468750000,48.1572113037109400,21.2483291625976560,28.7264404296875000,145,4130,47,53,46,8501,2146968786,2147532928,2147299401,2147435026,2147327104,2147668416,2148660205,2147208457,1957,-1,9,28560
1380212829,5805,115.5299987792968800,21.3603000640869140,36.6547012329101560,251.4700012207031200,44.6487617492675800,21.3555202484130860,28.5509605407714840,146,4130,47,52,46,8498,2146970404,2147539501,2147305088,2147434157,2147404854,2147833865,2148859684,2147225033,2425,-1,9,55909
1380212922,5804,111.5199966430664000,21.6163997650146500,36.6310997009277340,256.3974914550781000,36.9774398803710940,21.5900897979736330,28.2448806762695300,147,4130,47,52,46,8497,2146971931,2147543104,2147310966,2147435812,2147493705,2147993600,2149020370,2147242230,2162,-1,9,379
1380213037,5804,108.1200027465820300,21.9051990509033200,36.6407012939453100,261.9869995117187500,28.0293807983398440,21.8640594482421880,27.9018497467041000,146,4130,47,53,48,8495,2146973650,2147545097,2147316790,2147434322,2147579218,2148140672,2149187986,2147256256,2102,-1,9,30049
1380213315,5807,104.0699996948242200,22.1378993988037100,36.6441001892089840,267.1701049804687500,19.2157592773437500,22.1343097686767580,27.5837707519531250,146,4130,48,52,46,8494,2146979958,2147551305,2147317211,2147433298,2147676580,2148256128,2149268242,2147266358,1031,-1,8,533
1380213430,5804,99.6699981689453100,22.3113994598388670,36.6679992675781250,268.5992126464844000,13.7432003021240230,22.3023204803466800,27.4599800109863280,146,4130,47,51,46,8498,2146986176,2147557065,2147320393,2147430674,2147809600,2148442541,2149436370,2147285266,229,-2,8,14884
1380213485,5807,97.4499969482421900,22.4531993865966800,36.6772003173828100,268.1889038085937500,9.4930076599121100,22.4329109191894530,27.4242191314697270,146,4130,47,52,46,8494,2146988022,2147562678,2147331044,2147430080,2147929344,2148630628,2149634614,2147303552,3185,-1,8,51822
1380213572,5805,93.9300003051757800,22.6609001159667970,36.6731986999511700,270.2152099609375000,2.8405749797821045,22.6375198364257800,27.2629604339599600,146,4130,47,52,47,8494,2147001910,2147576219,2147345289,2147430811,2148226477,2149120694,2150156370,2147351908,2002,-1,9,3616
1380213627,5803,91.8000030517578100,22.8658008575439450,36.6148986816406250,267.6856994628906000,-3.8869950771331787,22.8446903228759770,27.2808990478515620,146,4130,49,53,46,8482,2147008329,2147587757,2147364425,2147429696,2148487762,2149535926,2150603776,2147392502,1987,-1,8,65280
1380213694,5804,90.4800033569336000,23.1212005615234380,36.6404991149902340,266.3045043945312500,-11.2462501525878900,23.0716209411621100,27.2459907531738280,145,4130,47,52,47,8485,2147011757,2147598875,2147372937,2147431360,2148652269,2149806326,2150900269,2147422838,2501,-1,9,20501
1380213900,5805,88.1100006103515600,23.0923004150390620,36.5625000000000000,268.0032958984375000,-11.6514396667480470,23.0841197967529300,27.1737709045410160,147,4130,48,52,46,8483,2147071305,2147689170,2147497179,2147435428,2150363648,2152902555,2154642651,2147763483,2240,-2,9,35620
1380213955,5804,85.9100036621093800,23.1655998229980470,36.5559997558593750,273.9957885742187500,-14.0428695678710940,23.1579399108886720,26.9115009307861330,148,4130,48,52,46,8483,2147170084,2147840338,2147710070,2147449243,2153231716,2158140489,2161013833,2148346569,1949,-2,8,35500
1380214010,5806,83.8000030517578100,23.3859004974365230,36.5480003356933600,280.7774047851562500,-20.4161891937255860,23.3548297882080080,26.5782108306884770,147,4130,48,52,46,8493,2147131565,2147766262,2147601371,2147436425,2151913947,2155318482,2157250130,2148021293,1623,-2,9,8057
1380214065,5803,82.2300033569336000,23.5328006744384770,36.5424003601074200,285.5513916015625000,-25.2195892333984380,23.5034008026123050,26.3445396423339840,145,4130,47,52,46,8491,2147102089,2147715867,2147533293,2147439149,2151164214,2153785517,2155255753,2147849188,1211,-2,8,22414
1380214187,5807,80.2200012207031200,23.6856994628906250,36.5326004028320300,288.6241149902344000,-30.5667495727539060,23.6689491271972660,26.1693191528320300,145,4130,48,52,46,8476,2147080822,2147678656,2147472548,2147430336,2150541211,2152515145,2153600886,2147706112,3555,-2,8,22537
1380214254,5804,78.2200012207031200,23.7737007141113280,36.5274009704589840,283.5893859863281000,-33.4269905090332000,23.7575798034667970,26.3184299468994140,145,4130,46,53,46,8476,2147082669,2147676123,2147463753,2147431926,2150536841,2152342838,2153264996,2147679222,2798,-2,8,60492
1380214309,5804,76.3799972534179700,23.8206996917724600,36.5311012268066400,281.7106018066406000,-35.5374412536621100,23.8230094909667970,26.3624992370605470,143,4130,48,52,47,8474,2147107520,2147712091,2147493522,2147434669,2151251894,2153356580,2154233280,2147781238,2374,-2,9,44096
1380214364,5802,74.3499984741211000,24.0049991607666000,36.5357017517089840,279.8942871093750000,-40.6865310668945300,23.9827804565429700,26.3685398101806640,144,4130,46,52,45,8479,2147102354,2147693412,2147474285,2147427520,2151084050,2152870089,2153564315,2147723419,2165,-2,9,51934
1380214419,5806,72.6999969482421900,24.1375007629394530,36.5392990112304700,280.9935913085937500,-44.6600685119628900,24.1061897277832030,26.2802505493164060,144,4130,47,53,46,8480,2147118445,2147712484,2147488512,2147429869,2151546313,2153440100,2154055872,2147779108,2399,-1,9,35796
1380214506,5807,70.5100021362304700,24.3323001861572270,36.4846000671386700,284.2186889648437500,-51.0437202453613300,24.3046894073486330,26.0858707427978500,144,4130,48,52,47,8480,2147145472,2147741120,2147514541,2147432201,2152305206,2154310153,2154726601,2147855030,2984,-2,8,410
1380214561,5808,69.0699996948242200,24.4472007751464840,36.4878997802734400,284.5881958007812500,-54.8962898254394500,24.4246196746826170,26.0266990661621100,145,4130,48,52,46,8476,2147172772,2147766930,2147535716,2147433408,2152922148,2155047926,2155334125,2147927360,2582,-2,9,41254
1380214652,5803,67.4000015258789000,24.6427001953125000,36.4771995544433600,289.7016906738281000,-60.7134590148925800,24.6058998107910160,25.7737407684326170,144,4130,49,52,46,8476,2147205595,2147810624,2147578715,2147435748,2153965330,2156343030,2156470710,2148052077,1471,-2,9,32402
1380214810,5807,65.3199996948242200,24.7621994018554700,36.4833984375000000,309.4107055664062500,-65.4635467529296900,24.7541198730468750,25.0424995422363280,144,4130,47,51,46,8478,2147239954,2147833481,2147596342,2147438235,2154698944,2157072338,2156947904,2148116306,317,-2,9,53318
1380214889,5806,63.0400009155273440,25.2203006744384770,36.4430007934570300,309.4132995605469000,-77.8439407348632800,25.1411991119384770,24.8986892700195300,144,4130,48,54,47,8478,2147299446,2147891181,2147644736,2147438555,2156258477,2158781577,2158230893,2148258230,3379,-1,9,36445
1380214956,5808,61.5699996948242200,25.3526000976562500,36.4402999877929700,322.6199951171875000,-82.5057220458984400,25.2872600555419920,24.4203891754150400,144,4130,48,53,47,8476,2147388635,2147989403,2147744475,2147446363,2158613650,2161752841,2160881033,2148557348,3534,-2,9,53396
1380215162,5806,59.1699981689453100,25.5261993408203120,36.4132995605468750,404.5122985839844000,-89.5756378173828100,25.5090904235839840,22.0805606842041000,146,4130,49,53,48,8481,2147720182,2148341558,2148097947,2147471040,2167647625,2172884489,2170601728,2149677330,671,-1,9,20983
1380215313,5808,57.7500000000000000,25.7007999420166000,36.3988990783691400,431.7380065917969000,-93.5752410888671900,25.6347599029541000,21.3945503234863280,144,4130,49,51,46,8471,2147687040,2148278994,2148011684,2147464420,2166620196,2170776182,2168015899,2149393398,779,-1,9,18278
1380215423,5807,55.2900009155273440,25.9025993347167970,36.3861007690429700,494.3059997558594000,-101.7249984741211000,25.8912296295166000,19.9812908172607420,147,4130,48,51,45,8474,2148451346,2149108544,2148850386,2147534838,2187626304,2196900589,2191181220,2152154075,1079,-2,9,49455
1380215565,5808,53.4399986267089840,26.4302005767822270,36.3003997802734400,541.1663818359375000,-114.2630004882812500,26.2868690490722660,18.9658107757568360,142,4130,48,52,46,8459,2148026258,2148601929,2148291931,2147487012,2175460397,2180394084,2175526784,2150344612,1197,-1,9,58385
1380215902,5810,52.9500007629394500,26.7411003112792970,36.1767005920410160,522.7625732421875000,-128.2268066406250000,26.7290897369384770,19.1532497406005860,144,4130,46,53,48,8461,2148123282,2148674157,2148318628,2147480987,2177189851,2181446427,2175499821,2150318902,1459,0,9,14345
1380216385,5806,50.4399986267089840,26.8159008026123050,36.1436996459960940,498.8601074218750000,-131.0140075683593800,26.8175697326660160,19.5779304504394530,144,4130,49,52,47,8479,2148448740,2148911753,2148433115,2147481124,2185049197,2188484242,2179631378,2150861321,1756,-1,9,44261
1380216430,5804,48.6899986267089840,26.8183994293212900,36.1403007507324200,459.2856140136719000,-131.0885925292968800,26.8199405670166000,20.3812694549560550,142,4130,48,52,45,8482,2148617289,2149047094,2148518921,2147486564,2189059492,2192201819,2181858514,2151126537,2117,-1,9,48588
1380216475,5804,46.8699989318847660,26.8125991821289060,36.1393013000488300,441.4988098144531000,-131.1049041748047000,26.8204593658447270,20.7663402557373050,142,4130,48,53,47,8482,2149480036,2149870912,2149208685,2147538368,2211958153,2217706660,2201648694,2153532763,2212,-2,9,40492
1380216508,5807,45.4700012207031250,26.8155002593994140,36.1371994018554700,448.2226867675781000,-131.1660003662109400,26.8223991394042970,20.6181697845459000,142,4130,47,52,47,8476,2151041819,2151406610,2150525394,2147640018,2252684918,2264242139,2238869266,2158145645,2166,-2,9,16639
1380216553,5804,43.4700012207031250,26.8090991973876950,36.1318016052246100,459.5979919433594000,-131.0590057373047000,26.8190002441406250,20.3749504089355470,140,4130,48,51,45,8479,2150441133,2150718912,2149833106,2147587748,2235456164,2240708406,2217004900,2155697481,2211,-2,9,52594
1380216598,5805,41.2999992370605500,26.8066997528076170,36.1287002563476560,465.6507873535156000,-131.0121002197265600,26.8175106048584000,20.2480201721191400,142,4130,48,52,47,8479,2152443702,2152643529,2151461010,2147724662,2290139346,2301638473,2264652681,2162005796,2210,-1,9,16257
1380216662,5804,37.9799995422363300,26.8062000274658200,36.1287994384765600,499.2347106933594000,-131.0030975341797000,26.8172206878662100,19.5707492828369140,140,4130,48,52,46,8476,2153219794,2153280585,2151903716,2147781732,2313477019,2323309083,2278101293,2164325302,2157,-2,9,49317
1380216695,5804,35.9000015258789060,26.8069992065429700,36.1278991699218750,511.1914062500000000,-130.9723052978515600,26.8162498474121100,19.3412303924560550,140,4130,48,52,47,8477,2153706779,2153677376,2152193554,2147827794,2326401280,2334971593,2285393426,2166003931,2101,-2,8,23179
1380216728,5805,33.6399993896484400,26.8059005737304700,36.1283988952636700,514.8546752929688000,-131.0009002685547000,26.8171501159667970,19.2716102600097660,138,4130,47,52,46,8476,2154144246,2154018038,2152414272,2147860077,2340059382,2347607113,2293135753,2167508864,2261,-1,9,38471